Regional Weather Roundup
Issued by NWS

Home | Current Version | Previous Version | Graphics & Text | Print | Product List | Glossary On
Versions: 1 2 3 4 5 6 7 8 9 10 11 12 13 14 15 16 17 18 19 20 21 22 23 24 25 26 27 28 29 30 31 32 33 34 35 36 37 38 39 40 41 42 43 44 45 46 47 48 49 50
116
ASUS43 KLOT 270903
RWRIL

ILLINOIS REGIONAL WEATHER ROUNDUP
NATIONAL WEATHER SERVICE CHICAGO/ROMEOVILLE IL
400 AM CDT THU APR 27 2017

NOTE: "FAIR" INDICATES FEW OR NO CLOUDS BELOW 12,000 FEET WITH NO
SIGNIFICANT WEATHER AND/OR OBSTRUCTIONS TO VISIBILITY.

* THESE STATIONS ARE NOT UNDER NWS QUALITY CONTROL. THEY ALSO MAY NOT
  REPORT WEATHER SUCH AS PRECIPITATION OR FOG.

ILZ001-002-007-009-015-016-024-271000-
NORTHWEST ILLINOIS

CITY           SKY/WX    TMP DP  RH WIND       PRES   REMARKS
MOLINE         LGT RAIN  42  39  89 NW14      29.46F
STERLING*      RAIN      44  42  93 W17       29.40S
SAVANNA*       RAIN      43  41  94 NW13G18   29.42S
$$

ILZ003-004-008-010-011-017-018-271000-
NORTH CENTRAL ILLINOIS

CITY           SKY/WX    TMP DP  RH WIND       PRES   REMARKS
ROCKFORD       RAIN      49  46  90 NW15      29.36F FOG
FREEPORT*      RAIN      42  41  97 NW15      29.40S
ROCHELLE*      HVY RAIN  47  46  98 W15       29.37R
DE KALB*       RAIN      50  50  98 W13       29.33S
PERU*          DRIZZLE   46  44  94 NW18      29.37F
$$

ILZ005-006-012>014-019>023-271000-
NORTHEAST ILLINOIS

CITY           SKY/WX    TMP DP  RH WIND       PRES   REMARKS
CHICAGO-OHARE  LGT RAIN  60  57  89 S16G23    29.31F
CHICAGO-MIDWAY LGT RAIN  61  58  90 S12G22    29.33F
AURORA         LGT RAIN  59  57  93 S16       29.31F FOG
LANSING*       LGT RAIN  59  58  97 S17       29.35F
JOLIET*        LGT RAIN  60  58  95 S12G17    29.33F
WAUKEGAN       LGT RAIN  55  55 100 SE7       29.30F FOG
DUPAGE AIRPORT LGT RAIN  59  58  96 S18G26    29.30F
KANKAKEE*      CLOUDY    57  56  97 S15G22    29.34S
WHEELING       LGT RAIN  60  59  96 S10       29.32F
MORRIS*        RAIN      58  56  94 S9        29.32F
NORTHERLY ISL    N/A     60  56  86 S10         N/A
$$

LMZ740>746-271000-
SOUTHERN LAKE MICHIGAN

STATION/POSITION SKY/WX   TEMP    WIND        PRES    VSBY  WAVE
                          AIR SEA DIR/SP/G                  HT/PER
                          (F)     (DEG/KT/KT) (MB)    (MI)  (FT/S)
SOUTHERN BUOY              48 42  100/  8/ 10  994.8          0
HARRISON CRIB              58     170/ 19/ 25   N/A
BURNHAM HARBOR             60     170/ 10/ 15   N/A
CALUMET HARBOR             61     160/ 11/ 16  993.3F
BURNS HARBOR               62     170/ 11/ 23  994.2F
MICHIGAN CITY              61     150/ 13/ 18   N/A
MICHIGAN CITY 6N           58 49                N/A           1/ 2
ST. JOSEPH                 57 50  170/ 14/ 19  995.1F         1
$$

ILZ025>027-034>036-040-047-049-050-058-095>099-271000-
WEST-CENTRAL ILLINOIS

CITY           SKY/WX    TMP DP  RH WIND       PRES   REMARKS
QUINCY         CLOUDY    43  41  93 W10       29.54S
GALESBURG*     RAIN      41  40  96 W13G18    29.47R
MACOMB*        LGT RAIN  42  41  97 NW18      29.52R
JACKSONVILLE*  CLOUDY    44  42  93 W18       29.51R
PITTSFIELD*    CLOUDY    45  42  92 W9        29.55R
$$

ILZ028>032-037-038-041>044-048-051>054-059>061-271000-
CENTRAL ILLINOIS

CITY           SKY/WX    TMP DP  RH WIND       PRES   REMARKS
PONTIAC        HVY RAIN  56  56  98 W20       29.36R
BLOOMINGTON    LGT RAIN  48  46  93 W24G33    29.39R
DECATUR        LGT RAIN  48  48 100 W17G31    29.44R
PEORIA         RAIN      44  42  93 NW13G20   29.45R
LACON*         LGT RAIN  44  44  99 W12G20    29.40S
LINCOLN*       RAIN      47  47  99 W10G18    29.44R
SPRINGFIELD    CLOUDY    47 N/A N/A W14       29.49R
TAYLORVILLE    CLOUDY    46  44  93 W15G26    29.48R
$$

ILZ033-039-045-046-055>057-062-063-271000-
EAST-CENTRAL ILLINOIS

CITY           SKY/WX    TMP DP  RH WIND       PRES   REMARKS
CHAMPAIGN      LGT RAIN  59  55  87 S26G35    29.37F
RANTOUL*       LGT RAIN  60  57  90 S17       29.37S
MATTOON        LGT RAIN  52  52 100 W13G23    29.44R
PARIS*         CLOUDY    58  57  94 S20G28    29.42S
$$

ILZ079-100>102-271000-
SOUTHWEST ILLINOIS

CITY           SKY/WX    TMP DP  RH WIND       PRES   REMARKS
ALTON          MOCLDY    46  44  91 W15G21    29.55R
BELLEVILLE     CLOUDY    48  48 100 SW5       29.53R
CAHOKIA*       CLOUDY    50  45  83 NW15G21   29.55R
$$

ILZ064>066-069>071-074>076-080>082-084>086-088>090-092>094-271000-
SOUTH-CENTRAL ILLINOIS

CITY           SKY/WX    TMP DP  RH WIND       PRES   REMARKS
CARBONDALE     MOCLDY    49  48  97 W9        29.57R
CAIRO*         CLOUDY    51  48  89 W10G16    29.61R
EFFINGHAM*     DRIZZLE   51  51 100 SW15G21   29.50R
MARION         CLOUDY    52  50  93 W5        29.59R
MT. VERNON     CLOUDY    50  48  93 W6        29.54R
CENTRALIA*     CLOUDY    50  49  97 W13       29.52R
SALEM*         CLOUDY    51  48  87 W12G23    29.52R
METROPOLIS*    CLOUDY    53  51  93 W9        29.59R
$$

ILZ067-068-072-073-078-083-087-091-271000-
SOUTHEAST ILLINOIS

CITY           SKY/WX    TMP DP  RH WIND       PRES   REMARKS
LAWRENCEVILLE  CLOUDY    62  57  83 S21G30    29.47S
FLORA*         CLOUDY    53  51  92 W13       29.51R
FAIRFIELD*     CLOUDY    51  50  95 SW9       29.52R
HARRISBURG*    DRIZZLE   52  50  94 W15G25    29.55R
ROBINSON*      CLOUDY    59  56  89 S17G24    29.46S
CARMI*         LGT RAIN  54  53  95 W18G28    29.52R
$$

ABBREVIATIONS USED IN REMARKS
   TC - TEMPERATURE IN CELSIUS
  WCI - WIND CHILL INDEX
   HX - HEAT INDEX
  VSB - VISIBILITY
$$





USA.gov is the U.S. government's official web portal to all federal, state and local government web resources and services.